This demonstration page uses our WeatherBlox Daily Observations layout. Learn more.

Left ArrowRight Arrow

Hourly Observations for February 14, 2022

Temp ( °F °C ) Dew Point ( °F °C ) Humidity (%) Winds ( mph kmh ) Pressure ( in mb ) Visibility ( mi km ) Precip ( " mm )
12:53 am 00:53 Clear 47 8.3 40 4.4 77 77 Calm 30.14 1021 10 16 0.00 0.00
1:53 am 01:53 Clear 44 6.7 39 3.9 83 83 Calm 30.13 1020 10 16 0.00 0.00
2:53 am 02:53 Clear 45 7.2 39 3.9 80 80 Calm 30.11 1020 10 16 0.00 0.00
3:53 am 03:53 Clear 46 7.8 39 3.9 77 77 Calm 30.10 1019 7 11 0.00 0.00
4:53 am 04:53 Clear 46 7.8 39 3.9 77 77 Calm 30.08 1019 10 16 0.00 0.00
5:53 am 05:53 Clear 46 7.8 39 3.9 77 77 Calm 30.07 1018 10 16 0.00 0.00
6:53 am 06:53 Clear 43 6.1 38 3.3 82 82 N 6 9 30.07 1018 10 16 0.00 0.00
7:53 am 07:53 Sunny 43 6.1 38 3.3 82 82 VRB 3 6 30.06 1018 10 16 0.00 0.00
8:53 am 08:53 Sunny 50 10 42 5.6 74 74 E 3 6 30.05 1018 10 16 0.00 0.00
9:53 am 09:53 Sunny 55 12.8 41 5 59 59 Calm 30.04 1017 10 16 0.00 0.00
10:53 am 10:53 Sunny 60 15.6 42 5.6 52 52 S 3 6 30.02 1017 10 16 0.00 0.00
11:53 am 11:53 Sunny 64 17.8 41 5 43 43 S 14 22 29.98 1015 10 16 0.00 0.00
12:53 pm 12:53 Sunny 64 17.8 42 5.6 45 45 S 14 22 29.93 1014 10 16 0.00 0.00
1:53 pm 13:53 Sunny 67 19.4 44 6.7 44 44 S 21 33 29.88 1012 10 16 0.00 0.00
2:53 pm 14:53 Sunny 67 19.4 46 7.8 47 47 S 21 33 29.84 1010 10 16 0.00 0.00
3:53 pm 15:53 Sunny 66 18.9 46 7.8 49 49 S 17 28 29.83 1010 10 16 0.00 0.00
4:53 pm 16:53 Mostly Sunny 66 18.9 33 0.6 29 29 W 9 15 29.84 1010 10 16 0.00 0.00
5:53 pm 17:53 Clear 60 15.6 28 -2.2 30 30 W 13 20 29.84 1011 10 16 0.00 0.00
6:53 pm 18:53 Clear 58 14.4 30 -1.1 35 35 NW 8 13 29.88 1012 10 16 0.00 0.00
7:53 pm 19:53 Cloudy 54 12.2 33 0.6 45 45 NW 10 17 29.90 1013 10 16 0.00 0.00
8:53 pm 20:53 Cloudy 54 12.2 31 -0.6 42 42 N 8 13 29.92 1013 10 16 0.00 0.00
9:53 pm 21:53 Clear 54 12.2 27 -2.8 35 35 N 9 15 29.93 1014 10 16 0.00 0.00
10:53 pm 22:53 Clear 50 10 30 -1.1 46 46 VRB 5 7 29.95 1014 10 16 0.00 0.00
11:53 pm 23:53 Partly Cloudy 49 9.4 28 -2.2 44 44 NW 7 11 29.95 1014 10 16 0.00 0.00

Powered by AerisWeather